Regional Weather Roundup
Issued by NWS

Home | Current Version | Previous Version | Graphics & Text | Print | Product List | Glossary On
Versions: 1 2 3 4 5 6 7 8 9 10 11 12 13 14 15 16 17 18 19 20 21 22 23 24 25 26 27 28 29 30 31 32 33 34 35 36 37 38 39 40 41 42 43 44 45 46 47 48 49 50
000
ASUS45 KCYS 291010
RWRWY

WYOMING REGIONAL WEATHER ROUNDUP
NATIONAL WEATHER SERVICE CHEYENNE WY
400 AM MDT WED JUL 29 2015

NOTE:  "FAIR" INDICATES FEW OR NO CLOUDS BELOW 12,000 FEET
WITH NO SIGNIFICANT WEATHER AND/OR OBSTRUCTIONS TO VISIBILITY.

WYZ001-291100-
YELLOWSTONE NATIONAL PARK

CITY           SKY/WX    TMP DP  RH WIND       PRES   REMARKS
LK YELLOWSTONE   N/A     29  26  89 CALM      30.46F
W YELLOWSTONE  NOT AVBL

$$
WYZ002>013-054>058-071-098>099-291100-
NORTHERN WYOMING

CITY           SKY/WX    TMP DP  RH WIND       PRES   REMARKS
JACKSON        FAIR      37  34  87 CALM      30.43S
CODY           FAIR      52  34  50 SW3       30.32S
GREYBULL       FAIR      50  36  58 CALM      30.27R
WORLAND        FAIR      49  32  52 S7        30.28S
SHERIDAN       FAIR      50  35  56 SW5       30.25S
BUFFALO        FAIR      51  33  50 W8        30.31R
GILLETTE       FAIR      53  35  50 SW10      30.27R
HULETT         FAIR      52  36  54 SW10      30.26S
NEWCASTLE      FAIR      45  36  70 CALM      30.30S

$$
WYZ014>020-022>026-101>103-291100-
CENTRAL WYOMING

CITY           SKY/WX    TMP DP  RH WIND       PRES   REMARKS
BIG PINEY      FAIR      34  26  72 CALM      30.42S
PINEDALE       FAIR      34  30  86 NW6       30.42S WCI  29
DUBOIS         FAIR      36  28  75 W13       30.42S WCI  27
LANDER         FAIR      49  29  46 SW6       30.34R
RIVERTON       FAIR      51  31  46 NW10      30.35R
CASPER         FAIR      40  31  70 NE3       30.34R
DOUGLAS        FAIR      44  31  60 N5        30.34R

$$
WYZ021-027>030-104>119-291100-
SOUTHERN WYOMING

CITY           SKY/WX    TMP DP  RH WIND       PRES   REMARKS
EVANSTON       FAIR      46  25  43 CALM      30.41S
KEMMERER       FAIR      37  30  75 N10       30.42S WCI  30
FORT BRIDGER   SUNNY     50  23  34 W5        30.44S
ROCK SPRINGS   FAIR      50  25  37 E5        30.39R
DIXON          FAIR      43  23  45 CALM      30.38R
RAWLINS        FAIR      42  21  43 N9        30.37R
SARATOGA       FAIR      41  23  48 CALM      30.38S
LARAMIE        FAIR      49  31  49 S8        30.37S
CHEYENNE       FAIR      51  31  46 NW6       30.35R
TORRINGTON     FAIR      48  40  73 N8        30.28R
PINE BLUFFS    FAIR      45  37  76 CALM      30.32S

$$



USA.gov is the U.S. government's official web portal to all federal, state and local government web resources and services.